{"data":{"norad_id":62377,"intl_designator":"2024-247A","name":"KORSAT-2","alt_names":[],"object_type":"PAYLOAD","status":"ACTIVE","operator":null,"country":"SKOR","launch_date":"2024-12-21","launch_site_code":"AFWTR","launch_vehicle":null,"mission":null,"orbit_class":"UNKNOWN","rcs_meters":null,"size_class":null,"mass_kg":null,"dimensions":null,"purposes":[],"wikipedia_slug":null,"has_3d_model":false,"image_url":null,"decayed_at":null,"tle_current":{"epoch":"2026-09-22T02:39:29.446272Z","epoch_age_seconds":173199,"freshness":"STALE","line1":"1 62377U 24247A   26265.11075748  .00001728  00000+0  15987-3 0  9998","line2":"2 62377  45.4101 285.3468 0001652 336.3404  23.7398 14.98800594 96101","mean_motion":14.98800594,"eccentricity":0.0001652,"inclination_deg":45.4101,"raan_deg":285.3468,"arg_perigee_deg":336.3404,"mean_anomaly_deg":23.7398,"bstar":0.00015987,"rev_number":9610,"period_min":96.076823412308,"perigee_km":569.45306708747,"apogee_km":571.74893012221,"semimajor_km":6948.7379986048,"source":"CELESTRAK","updated_at":"2026-09-23T09:00:21.390393Z"}}}